Flag for Jordan Weather past 2 weeks in Zarqa, Jordan

Now
75 °F

Haze.


Feels Like: 78 °F
Forecast: 72 / 97 °F
Wind: 7 mph from West

Location: Amman Airport

Current Time: Jul 30, 2015 at 5:53:59 AM

Latest Report: Jul 30, 2015 at 5:00 AM


Visibility: 3 mi

Pressure: 29.83 "Hg (27.79 "Hg at 615m altitude)

Humidity: 50%

Dew point: 55 °F

Location of ZarqaLocation

Historic Weather in Zarqa — Graph

°F

Zarqa temperature yesterday

Maximum temperature yesterday: 91 °F (at 3:00 PM)
Minimum temperature yesterday: 73 °F (at 3:00 AM)
Average temperature yesterday: 82 °F

Past Weeks' High & Low Weather Summary

 TemperatureHumidityPressure
High99 °F (Jul 25, 2:00 PM)69% (Jul 28, 6:00 AM)29.92 "Hg (Jul 28, 6:00 AM)
Low68 °F (Jul 21, 6:00 AM)9% (Jul 23, 3:00 PM)29.77 "Hg (Jul 21, 3:00 PM)
Average82 °F31%29.84 "Hg
* Reported Jul 15 5:00 AM — Jul 30 5:00 AM, Zarqa, Weather by CustomWeather, © 2015

Note: Actual official high and low records may vary slightly from our data, if they occured in-between our weather recording intervals... More about our weather records

Advertising

Zarqa weather history for previous 24 hours

 ConditionsComfort  
Time TempWeatherWind HumidityBarometerVisibility
5:00 AM
Thu, Jul 30
75 °FHaze.7 mph50%29.83 "Hg3 mi
4:00 AM75 °FHaze.3 mph50%29.83 "Hg3 mi
3:00 AM75 °FHaze.7 mph50%29.83 "Hg3 mi
2:00 AM75 °FHaze.No wind54%29.83 "Hg3 mi
1:00 AM77 °FHaze.No wind51%29.83 "Hg3 mi
12:00 AM79 °FHaze.No wind51%29.83 "Hg3 mi
11:00 PM
Wed, Jul 29
79 °FHaze.No wind51%29.83 "Hg3 mi
10:00 PM81 °FHaze.5 mph48%29.83 "Hg3 mi
9:00 PM82 °FHaze.3 mph40%29.83 "Hg3 mi
8:00 PM84 °FHaze.3 mph37%29.80 "Hg2 mi
7:00 PM88 °FHaze.8 mph27%29.80 "Hg3 mi
6:00 PM90 °FHaze.12 mph24%29.80 "Hg3 mi
5:00 PM91 °FHaze.9 mph17%29.80 "Hg3 mi
4:00 PM91 °FHaze.12 mph16%29.80 "Hg3 mi
3:00 PM91 °FHaze.12 mph17%29.83 "Hg3 mi
2:00 PM88 °FHaze.9 mph13%29.83 "Hg3 mi
1:00 PM88 °FHaze.9 mph13%29.83 "Hg3 mi
12:00 PM90 °FHaze.5 mph14%29.83 "Hg3 mi
11:00 AM88 °FHaze.No wind18%29.83 "Hg3 mi
10:00 AM86 °FHaze.5 mph18%29.83 "Hg3 mi
9:00 AM82 °FHaze.No wind30%29.83 "Hg3 mi
8:00 AM81 °FHaze.No wind30%29.83 "Hg3 mi
7:00 AM77 °FHaze.No wind32%29.83 "Hg3 mi
6:00 AM75 °FHaze.No wind29%29.83 "Hg3 mi
5:00 AM75 °FHaze.No wind29%29.86 "Hg3 mi
Weather by CustomWeather, © 2015

See weather overviewHow to use our weather pages